Regional Weather Roundup
Issued by NWS Cleveland, OH

Home | Current Version | Previous Version | Graphics & Text | Print | Product List | Glossary On
Versions: 1 2 3 4 5 6 7 8 9 10 11 12 13 14 15 16 17 18 19 20 21 22 23 24 25 26 27 28 29 30 31 32 33 34 35 36 37 38 39 40 41 42 43 44 45 46 47 48 49 50
012
ASUS41 KCLE 220910
RWRCLE
OHIO REGIONAL WEATHER ROUNDUP
NATIONAL WEATHER SERVICE CLEVELAND, OH
500 AM EDT SUN OCT 22 2017

NOTE: "FAIR" INDICATES FEW OR NO CLOUDS BELOW 12,000 FEET WITH NO
SIGNIFICANT WEATHER AND/OR OBSTRUCTIONS TO VISIBILITY.

OHZ001>008-015>018-024>027-034-035-043-044-221000-
   NORTHWEST OHIO

CITY           SKY/WX    TMP DP  RH WIND       PRES   REMARKS
DEFIANCE       PTCLDY    56  46  69 SE3       30.14F
FINDLAY        CLEAR     54  47  77 SE8       30.17S
TOLEDO EXPRESS CLOUDY    52  49  89 SE3       30.16S
TOLEDO EXEC    CLOUDY    55  48  77 S5        30.17F
LIMA           CLEAR     53  47  79 S7        30.17S
$$

OHZ009>014-019>023-028>033-038-089-221000-
   NORTHEAST OHIO

CITY           SKY/WX    TMP DP  RH WIND       PRES   REMARKS
CLE-HOPKINS    PTCLDY    55  49  80 SE5       30.25R
CLE-LAKEFRONT  PTCLDY    59  50  72 SE10      30.22R
CUY CO. ARPT   NOT AVBL
LORAIN-ELYRIA  CLEAR     52  45  77 S3        30.23R
ASHTABULA      CLEAR     50  49  96 CALM      30.27R
AKRON-CANTON   PTCLDY    55  49  80 SE3       30.25R
WOOSTER        CLEAR     42  41  96 CALM      30.25R FOG
MANSFIELD      CLEAR     53  48  83 S6        30.23R
YOUNGSTOWN     PTCLDY    49  47  93 SE7       30.27R
$$

OHZ042-051>053-060>062-070>072-077>081-221000-
  SOUTHWEST OHIO

CITY           SKY/WX    TMP DP  RH WIND       PRES   REMARKS
CINC-COVINGTON PTCLDY    56  49  77 S8        30.17F
CINC-LUNKEN    CLOUDY    47  47 100 CALM      30.20F FOG
HAMILTON       CLEAR     50  49  96 E6        30.19S
DAYTON         PTCLDY    56  50  80 S9        30.19S
WRIGHT-PAT AFB PTCLDY    51  49  92 CALM      30.18S
DAYTON GENERAL CLEAR     55  48  77 S7        30.18S
WILMINGTON     PTCLDY    56  50  80 S7        30.20S
$$

OHZ036-037-039>041-045>050-054>059-063>069-073>076-082>088-221000-
  CENTRAL AND SOUTHEAST OHIO

CITY           SKY/WX    TMP DP  RH WIND       PRES   REMARKS
COLUMBUS       MOCLDY    57  51  80 E6        30.21S
OSU AIRPORT    PTCLDY    54  52  93 CALM      30.21S
BOLTON FIELD   PTCLDY    49  49  98 CALM      30.22R
RICKENBACK AFB PTCLDY    51  50  97 CALM      30.21S
NEWARK         CLOUDY    48  46  93 CALM      30.23R
MARION         PTCLDY    52  47  83 SE8       30.21S
LANCASTER      CLOUDY    50  49  96 CALM      30.22S
ZANESVILLE     CLOUDY    53  49  86 SE3       30.24R
NEW PHILLY     NOT AVBL
$$




USA.gov is the U.S. government's official web portal to all federal, state and local government web resources and services.